Zurück zum Katalog

STARLINK-30834

AktivKommunikationVLEO
NORAD 58151·PAYLOAD·🇺🇸 United States

Gestartet Oct 29, 2023 von Vandenberg Space Force Base

Loading…

Nächste Überflüge (nächste 24 Stunden)

TLE

AktuellSource: CelesTrak SupGP

Epoche: Sep 15, 2026, 02:44 UTC

1 58151C 23166B   26258.11437500 -.00031133  00000+0 -91993-3 0  2586
2 58151  53.1592  58.8590 0000649  96.7803 156.4741 15.34403657    11

Verfolge STARLINK-30834 in Echtzeit mit AllMySat

Download on the App Store